Weather History for Bandarabbass, Iran

Change the Weather History Date:

Monday, February 4, 2013

  Actual Average Record
Temperature  
Mean Temperature 65 °F -  
Max Temperature 75 °F 77 °F - ()
Min Temperature 55 °F 58 °F - ()
Growing Degree Days 15 (Base 50)    
Moisture  
Dew Point 29 °F    
Average Humidity 31    
Maximum Humidity 83    
Minimum Humidity 7    
Precipitation  
Precipitation 0.00 in 0.06 in - ()
Sea Level Pressure  
Sea Level Pressure 30.08 in    
Wind  
Wind Speed 10 mph ()    
Max Wind Speed 21 mph    
Max Gust Speed -    
Visibility 5.7 miles    
Events      
T = Trace of Precipitation, MM = Missing Value Source: Averaged Metar Reports

Daily Weather History Graph

Daily Weather History Graph

Search for Another Location

Airport:

Trip Planner

Search our weather history database for the weather conditions in past years. The results will help you decide how hot, cold, wet, or windy it might be!

Date:

Astronomy

Feb. 04, 2013 Rise Set
Actual Time 6:28 AM IRST 5:28 PM IRST
Civil Twilight 6:04 AM IRST 5:52 PM IRST
Nautical Twilight 5:36 AM IRST 6:20 PM IRST
Astronomical Twilight 5:09 AM IRST 6:47 PM IRST
Moon 12:32 AM IRST (2/4) 11:38 AM IRST (2/4)
Length of Visible Light 11h 47m
Length of Day
10h 59m
Last Quarter, 41% of the Moon is Illuminated
Feb 4
Last Quarter
Feb 10
New
Feb 18
First Quarter
Feb 25
Full
Mar 5
Last Quarter

Hourly Weather History & Observations

Time (IRST) Temp. Dew Point Humidity Pressure Visibility Wind Dir Wind Speed Gust Speed Precip Events Conditions
12:00 AM 68.0 °F 15.8 °F 13% 29.95 in - North 20.7 mph - N/A   Clear
12:20 AM 66.2 °F 8.6 °F 11% 29.95 in - NW 20.7 mph - N/A   Clear
12:30 AM 66.2 °F 8.6 °F 11% 29.95 in - NW 20.7 mph - N/A   Clear
1:00 AM 66.2 °F 8.6 °F 11% 29.95 in - NW 20.7 mph - N/A   Clear
1:20 AM 64.4 °F 59.0 °F 83% 29.95 in - NW 13.8 mph - N/A   Clear
2:20 AM 64.4 °F 5.0 °F 10% 29.98 in - NNW 16.1 mph - N/A   Clear
2:30 AM 64.4 °F 5.0 °F 10% 29.98 in - NNW 16.1 mph - N/A   Clear
3:30 AM 62 °F 13 °F 7% 29.98 in 6 mi NNW 8.9 mph - -  
3:30 AM 62.6 °F 14.0 °F 15% 29.98 in - NNW 9.2 mph - N/A   Clear
4:20 AM 57.2 °F 21.2 °F 25% 29.98 in - ESE 6.9 mph - N/A   Clear
4:30 AM 57.2 °F 21.2 °F 25% 29.98 in - ESE 6.9 mph - N/A   Clear
5:20 AM 57.2 °F 23.0 °F 27% 30.01 in - NE 4.6 mph - N/A   Clear
5:30 AM 57.2 °F 23.0 °F 27% 30.01 in - NE 4.6 mph - N/A   Clear
6:00 AM 55.4 °F 23.0 °F 29% 30.04 in - West 9.2 mph - N/A   Clear
6:20 AM 57.2 °F 21.2 °F 25% 30.04 in - West 6.9 mph - N/A   Clear
6:30 AM 57.2 °F 21.2 °F 25% 30.04 in - West 6.9 mph - N/A   Clear
7:00 AM 57.2 °F 30.2 °F 36% 30.09 in - Variable 2.3 mph - N/A   Clear
7:20 AM 55.4 °F 33.8 °F 44% 30.09 in - NNW 4.6 mph - N/A   Clear
7:30 AM 55.4 °F 33.8 °F 44% 30.09 in - NNW 4.6 mph - N/A   Clear
8:00 AM 60.8 °F 30.2 °F 31% 30.09 in - North 4.6 mph - N/A   Clear
8:20 AM 64.4 °F 28.4 °F 26% 30.12 in - North 4.6 mph - N/A   Clear
8:30 AM 64.4 °F 28.4 °F 26% 30.12 in - North 4.6 mph - N/A   Clear
9:00 AM 66.2 °F 24.8 °F 21% 30.12 in - North 6.9 mph - N/A   Clear
9:20 AM 66.2 °F 24.8 °F 21% 30.15 in - ENE 9.2 mph - N/A   Clear
9:30 AM 66 °F 26 °F 12% 30.17 in 7 mi ENE 8.9 mph - -  
9:30 AM 66.2 °F 24.8 °F 21% 30.15 in - ENE 9.2 mph - N/A   Clear
10:00 AM 68.0 °F 24.8 °F 20% 30.15 in - East 11.5 mph - N/A   Clear
10:20 AM 68.0 °F 24.8 °F 20% 30.15 in - East 6.9 mph - N/A   Clear
10:30 AM 68.0 °F 24.8 °F 20% 30.15 in - East 6.9 mph - N/A   Clear
11:20 AM 69.8 °F 21.2 °F 16% 30.15 in - SSW 11.5 mph - N/A   Clear
12:00 PM 71.6 °F 19.4 °F 14% 30.12 in - NNW 4.6 mph - N/A   Clear
12:20 PM 73.4 °F 19.4 °F 13% 30.12 in - East 9.2 mph - N/A   Clear
12:30 PM 73.4 °F 19.4 °F 13% 30.12 in - East 9.2 mph - N/A   Clear
2:20 PM 73.4 °F 24.8 °F 16% 30.09 in - South 9.2 mph - N/A   Clear
2:30 PM 73.4 °F 24.8 °F 16% 30.09 in - South 9.2 mph - N/A   Clear
3:20 PM 75.2 °F 23.0 °F 14% 30.06 in - WNW 4.6 mph - N/A   Clear
3:30 PM 74 °F 23 °F 7% 30.09 in 6 mi WNW 4.5 mph - -  
3:30 PM 75.2 °F 23.0 °F 14% 30.06 in - WNW 4.6 mph - N/A   Clear
4:20 PM 71.6 °F 33.8 °F 25% 30.06 in - South 9.2 mph - N/A   Clear
4:55 PM 69.8 °F 35.6 °F 28% 30.06 in 5.0 mi South 9.2 mph - N/A   Clear
5:20 PM 68.0 °F 35.6 °F 30% 30.06 in 5.0 mi South 6.9 mph - N/A   Clear
6:00 PM 66.2 °F 37.4 °F 35% 30.09 in 5.0 mi South 6.9 mph - N/A   Clear
6:20 PM 66.2 °F 39.2 °F 37% 30.09 in - SSW 6.9 mph - N/A   Clear
7:00 PM 64.4 °F 41.0 °F 42% 30.09 in - SW 4.6 mph - N/A   Clear
7:20 PM 62.6 °F 41.0 °F 45% 30.09 in - SW 4.6 mph - N/A   Clear
7:30 PM 62.6 °F 41.0 °F 45% 30.09 in - SW 4.6 mph - N/A   Clear
8:00 PM 59.0 °F 42.8 °F 55% 30.09 in - West 4.6 mph - N/A   Clear
8:20 PM 57.2 °F 41.0 °F 55% 30.12 in - North 4.6 mph - N/A   Clear
8:30 PM 57.2 °F 41.0 °F 55% 30.12 in - North 4.6 mph - N/A   Clear
9:00 PM 59.0 °F 41.0 °F 51% 30.15 in - North 4.6 mph - N/A   Clear
9:20 PM 57.2 °F 41.0 °F 55% 30.15 in - North 4.6 mph - N/A   Clear
9:30 PM 57 °F 41 °F 45% 30.17 in 6 mi North 4.5 mph - -  
9:30 PM 57.2 °F 41.0 °F 55% 30.15 in - North 4.6 mph - N/A   Clear
10:00 PM 55.4 °F 41.0 °F 58% 30.15 in - WNW 4.6 mph - N/A   Clear
10:20 PM 55.4 °F 41.0 °F 58% 30.15 in - WNW 6.9 mph - N/A   Clear
10:30 PM 55.4 °F 41.0 °F 58% 30.15 in - WNW 6.9 mph - N/A   Clear
11:00 PM 57.2 °F 42.8 °F 59% 30.15 in - WNW 6.9 mph - N/A   Clear
11:20 PM 57.2 °F 42.8 °F 59% 30.15 in - NNE 4.6 mph - N/A   Clear
11:30 PM 57.2 °F 42.8 °F 59% 30.15 in - NNE 4.6 mph - N/A   Clear